Flag for South Africa Weather past 2 weeks in Stellenbosch, South Africa

Now
64 °F

Clear.


Feels Like: 64 °F
Forecast: 56 / 90 °F
Wind: 16 mph from Southeast

Location: Cape Town International Airport

Current Time: Feb 2, 2015 at 1:39:16 AM

Latest Report: Feb 2, 2015 at 1:00 AM


Visibility: 10 mi

Pressure: 29.89 "Hg

Humidity: 56%

Dew point: 48 °F

Location of StellenboschLocation

Historic Weather in Stellenbosch — Graph

°F

Stellenbosch temperature yesterday

Maximum temperature yesterday: 79 °F (at 3:00 PM)
Minimum temperature yesterday: 61 °F (at 3:00 AM)
Average temperature yesterday: 70 °F

Past Weeks' High & Low Weather Summary

 TemperatureHumidityPressure
High93 °F (Jan 29, 2:00 PM)94% (Jan 24, 7:00 AM)30.09 "Hg (Jan 24, 7:00 AM)
Low61 °F (Jan 20, 4:00 AM)34% (Jan 29, 2:00 PM)29.74 "Hg (Jan 24, 3:00 AM)
Average71 °F64%29.93 "Hg
* Reported Midnight between Jan 17 and Jan 18 — Midnight between Feb 1 and Feb 2, Stellenbosch, Weather by CustomWeather, © 2014

Note: Actual official high and low records may vary slightly from our data, if they occured in-between our weather recording intervals... More about our weather records

Advertising

Stellenbosch weather history for previous 24 hours

 ConditionsComfort  
Time TempWeatherWind HumidityBarometerVisibility
12:00 AM
Feb 2
66 °FClear.21 mph52%29.89 "Hg10 mi
11:00 PM
Feb 1
66 °FClear.22 mph56%29.89 "Hg10 mi
10:00 PM68 °FClear.21 mph56%29.92 "Hg10 mi
9:00 PM70 °FClear.25 mph53%29.92 "Hg10 mi
8:00 PM72 °FClear.26 mph50%29.92 "Hg10 mi
7:00 PM75 °FPassing clouds.25 mph44%29.89 "HgN/A
6:00 PM75 °FPassing clouds.28 mph50%29.92 "HgN/A
5:00 PM77 °FSunny.30 mph44%29.92 "Hg10 mi
4:00 PM79 °FSunny.29 mph42%29.92 "Hg10 mi
3:00 PM79 °FSunny.26 mph45%29.95 "Hg10 mi
2:00 PM77 °FSunny.30 mph47%29.98 "Hg10 mi
1:00 PM77 °FSunny.24 mph44%29.98 "Hg10 mi
12:00 PM77 °FSunny.20 mph42%30.01 "Hg10 mi
11:00 AM75 °FPassing clouds.18 mph39%30.01 "HgN/A
10:00 AM73 °FSunny.21 mph41%30.04 "Hg10 mi
9:00 AM72 °FSunny.20 mph44%30.04 "Hg10 mi
8:00 AM68 °FSunny.14 mph53%30.04 "Hg10 mi
7:00 AM64 °FSunny.14 mph60%30.01 "Hg10 mi
6:00 AM63 °FSunny.16 mph59%30.04 "Hg10 mi
5:00 AM63 °FClear.18 mph64%30.01 "Hg10 mi
4:00 AM63 °FClear.17 mph59%30.01 "Hg10 mi
3:00 AM61 °FClear.12 mph68%30.04 "Hg10 mi
2:00 AM63 °FPassing clouds.13 mph68%30.07 "HgN/A
1:00 AM63 °FPassing clouds.12 mph68%30.07 "HgN/A
Weather by CustomWeather, © 2014

See weather overviewHow to use our weather pages